Location: De Har
(53.3413°N, 6.6858°E)
Time: 20:05:37
(UTC+00:00)

Cosmos 1607 - Pass Details

Date: 22 April 2026
Orbit: 917 x 985 km, 65.0° (Epoch: 21 May)

Event Time Altitude Azimuth Distance (km) Brightness Sun altitude
Exits shadow 02:31:28 18° 246° (WSW) 2,131 5.2 -14.1°
Maximum altitude 02:36:07 60° 322° (NW) 1,077 4.3 -13.6°
Drops below altitude 10° 02:42:21 10° 43° (NE) 2,696 7.8 -13.0°
Sets 02:44:59 0° 47° (NE) 3,655 9.1 -12.7°
